Weather History for KDLH - April, 2014

Change the Weather History Date:

Friday, April 4, 2014

  Actual Average Record
Temperature  
Mean Temperature 31 °F 34 °F  
Max Temperature 39 °F 43 °F 69 °F (1991)
Min Temperature 22 °F 25 °F -5 °F (1975)
Degree Days  
Heating Degree Days 34 31  
Month to date heating degree days 153 126  
Since 1 July heating degree days 9033 8203  
Cooling Degree Days 0 0  
Month to date cooling degree days 0 0  
Year to date cooling degree days 0 0  
Moisture  
Dew Point 22 °F    
Average Humidity 68    
Maximum Humidity 88    
Minimum Humidity 48    
Precipitation  
Precipitation 0.34 in 0.07 in 0.90 in (1927)
Month to date precipitation 0.76 0.25  
Year to date precipitation 5.52 3.51  
Snow  
Snow 3.10 in 0.30 in 8.50 in (2003)
Month to date snowfall 12.9 1.3  
Since 1 July snowfall 117.6 80.1  
Snow Depth 34.00 in    
Sea Level Pressure  
Sea Level Pressure 29.85 in    
Wind  
Wind Speed 12 mph (North)    
Max Wind Speed 22 mph    
Max Gust Speed 30 mph    
Visibility 4 miles    
Events Fog , Snow    
T = Trace of Precipitation, MM = Missing Value Source: NWS Daily Summary

Daily Weather History Graph

Daily Weather History Graph

Search for Another Location

Airport or City:

Trip Planner

Search our weather history database for the weather conditions in past years. The results will help you decide how hot, cold, wet, or windy it might be!

Date:

Astronomy

Apr. 04, 2014 Rise Set
Actual Time 6:42 AM CDT 7:42 PM CDT
Civil Twilight 6:11 AM CDT 8:13 PM CDT
Nautical Twilight 5:34 AM CDT 8:50 PM CDT
Astronomical Twilight 4:55 AM CDT 9:29 PM CDT
Moon 9:46 AM CDT (4/4) 12:13 AM CDT (4/4)
Length of Visible Light 14h 01m
Length of Day
13h 00m
Waxing Crescent, 25% of the Moon is Illuminated
Apr 4
Waxing Crescent
Apr 7
First Quarter
Apr 15
Full
Apr 22
Last Quarter
Apr 29
New

Hourly Weather History & Observations

Time (CDT) Temp. Windchill Dew Point Humidity Pressure Visibility Wind Dir Wind Speed Gust Speed Precip Events Conditions
12:15 AM 25.0 °F 11.3 °F 21.0 °F 85% 29.86 in 0.5 mi ENE 18.4 mph - 0.01 in Fog , Snow Snow
12:32 AM 24.1 °F 9.4 °F 19.9 °F 84% 29.84 in 0.8 mi ENE 20.7 mph - 0.02 in Snow Light Snow
12:55 AM 25.0 °F 12.6 °F 21.0 °F 85% 29.91 in 0.5 mi ENE 15.0 mph - 0.03 in Fog , Snow Snow
1:24 AM 25.0 °F 12.6 °F 21.0 °F 85% 29.82 in 1.0 mi NE 15.0 mph - 0.02 in Snow Light Snow
1:55 AM 25.0 °F 12.2 °F 21.0 °F 85% 29.89 in 1.2 mi NE 16.1 mph - 0.03 in Snow Light Snow
2:05 AM 26.1 °F 14.5 °F 21.9 °F 84% 29.82 in 0.8 mi NE 13.8 mph - 0.00 in Snow Light Snow
2:55 AM 27.0 °F 15.6 °F 23.0 °F 85% 29.86 in 0.8 mi NE 13.8 mph - 0.03 in Snow Light Snow
3:55 AM 27.0 °F 16.1 °F 23.0 °F 85% 29.85 in 0.5 mi NNE 12.7 mph - 0.06 in Fog , Snow Light Snow
4:02 AM 26.1 °F 16.8 °F 21.9 °F 84% 29.77 in 0.5 mi North 9.2 mph - 0.00 in Fog , Snow Snow
4:32 AM 24.1 °F 12.5 °F 21.0 °F 88% 29.76 in 0.8 mi North 12.7 mph - 0.03 in Snow Light Snow
4:50 AM 24.8 °F 14.0 °F 21.2 °F 86% 29.77 in 1.0 mi North 11.5 mph - 0.04 in Snow Light Snow
4:55 AM 24.1 °F 12.5 °F 21.0 °F 88% 29.84 in 1.2 mi North 12.7 mph - 0.04 in Snow Light Snow
5:16 AM 24.1 °F 13.1 °F 19.9 °F 84% 29.77 in 0.8 mi North 11.5 mph - 0.01 in Snow Light Snow
5:37 AM 24.1 °F 12.0 °F 21.0 °F 88% 29.75 in 0.8 mi North 13.8 mph - 0.03 in Snow Light Snow
5:47 AM 24.1 °F 12.5 °F 21.0 °F 88% 29.75 in 0.8 mi North 12.7 mph - 0.03 in Snow Light Snow
5:55 AM 24.1 °F 12.5 °F 21.0 °F 88% 29.83 in 0.8 mi North 12.7 mph - 0.04 in Snow Light Snow
6:55 AM 25.0 °F 13.6 °F 21.9 °F 88% 29.85 in 0.5 mi North 12.7 mph - 0.03 in Fog , Snow Snow
6:58 AM 25.0 °F 13.6 °F 21.9 °F 88% 29.78 in 0.8 mi North 12.7 mph - 0.00 in Snow Light Snow
7:41 AM 26.1 °F 15.6 °F 21.9 °F 84% 29.78 in 0.2 mi North 11.5 mph - 0.03 in Fog , Snow Heavy Snow
7:55 AM 26.1 °F 16.2 °F 23.0 °F 88% 29.86 in 0.2 mi North 10.4 mph - 0.05 in Fog , Snow Snow
8:07 AM 26.1 °F 15.6 °F 23.0 °F 88% 29.78 in 0.2 mi North 11.5 mph - 0.01 in Fog , Snow Snow
8:18 AM 26.1 °F 15.6 °F 23.0 °F 88% 29.78 in 0.8 mi North 11.5 mph - 0.02 in Snow Light Snow
8:55 AM 27.0 °F 15.6 °F 23.0 °F 85% 29.84 in 0.8 mi North 13.8 mph - 0.03 in Snow Light Snow
9:29 AM 28.0 °F 16.5 °F 23.0 °F 81% 29.77 in 0.8 mi North 15.0 mph - 0.02 in Snow Light Snow
9:55 AM 28.0 °F 17.5 °F 23.0 °F 81% 29.84 in 0.8 mi North 12.7 mph - 0.03 in Snow Light Snow
10:00 AM 28.0 °F 16.5 °F 24.1 °F 85% 29.77 in 1.0 mi North 15.0 mph - 0.00 in Snow Light Snow
10:20 AM 28.0 °F 16.5 °F 23.0 °F 81% 29.77 in 1.5 mi North 15.0 mph 23.0 mph 0.00 in Snow Light Snow
10:24 AM 28.9 °F 17.7 °F 23.0 °F 78% 29.77 in 1.8 mi North 15.0 mph 23.0 mph 0.00 in Snow Light Snow
10:34 AM 28.9 °F 18.2 °F 23.0 °F 78% 29.76 in 2.0 mi North 13.8 mph - 0.00 in Snow Light Snow
10:42 AM 28.9 °F 17.3 °F 24.1 °F 82% 29.77 in 3.0 mi North 16.1 mph 21.9 mph 0.00 in Snow Light Snow
10:55 AM 30.0 °F 19.1 °F 24.1 °F 79% 29.83 in 6.0 mi North 15.0 mph 23.0 mph 0.00 in   Overcast
11:10 AM 30.9 °F 20.2 °F 24.1 °F 76% 29.77 in 9.0 mi North 15.0 mph 25.3 mph 0.00 in Snow Light Snow
11:55 AM 32.0 °F 20.5 °F 23.0 °F 69% 29.84 in 10.0 mi North 18.4 mph 27.6 mph 0.00 in   Mostly Cloudy
12:55 PM 33.1 °F 21.9 °F 23.0 °F 66% 29.86 in 10.0 mi North 18.4 mph 25.3 mph N/A   Mostly Cloudy
1:55 PM 35.1 °F 25.2 °F 23.0 °F 61% 29.87 in 10.0 mi North 16.1 mph 26.5 mph N/A   Mostly Cloudy
2:55 PM 36.0 °F 26.0 °F 23.0 °F 59% 29.88 in 10.0 mi North 17.3 mph - N/A   Mostly Cloudy
3:17 PM 36.0 °F 25.0 °F 23.0 °F 59% 29.82 in 10.0 mi North 20.7 mph 28.8 mph N/A   Scattered Clouds
3:55 PM 36.0 °F 26.3 °F 26.1 °F 67% 29.90 in 10.0 mi NNW 16.1 mph 23.0 mph N/A   Partly Cloudy
4:55 PM 39.0 °F 29.9 °F 21.0 °F 49% 29.91 in 10.0 mi NNW 17.3 mph 23.0 mph N/A   Partly Cloudy
5:55 PM 37.9 °F 28.9 °F 21.9 °F 53% 29.93 in 10.0 mi NW 16.1 mph 23.0 mph N/A   Partly Cloudy
6:55 PM 37.0 °F 30.4 °F 21.9 °F 54% 29.95 in 10.0 mi NW 9.2 mph - N/A   Partly Cloudy
7:55 PM 35.1 °F 30.1 °F 21.0 °F 57% 29.97 in 10.0 mi NW 5.8 mph - N/A   Clear
8:55 PM 26.1 °F 20.5 °F 19.0 °F 75% 29.99 in 10.0 mi WNW 4.6 mph - N/A   Clear
9:55 PM 28.9 °F 23.9 °F 19.0 °F 67% 30.00 in 10.0 mi NW 4.6 mph - N/A   Clear
10:55 PM 26.1 °F 21.9 °F 18.0 °F 71% 30.02 in 10.0 mi NW 3.5 mph - N/A   Clear
11:55 PM 21.9 °F - 15.1 °F 75% 30.01 in 10.0 mi Calm Calm - N/A   Clear